KS5S Weather Reports


Display with metric or nautical units.
time (UTC)temp
F
wind
direction
speed
MPH
gust
MPH
rain 1hr
in
rain 24hr
in
rain mn
in
humidity
%
barometer
mb
20260510020347 81 148 1.0 3.0 0.00 0.00 0.00 61 1006.5
20260510015842 81 159 2.0 3.0 0.00 0.00 0.00 61 1006.3
20260510015338 81 154 1.0 4.0 0.00 0.00 0.00 61 1006.4
20260510014834 81 147 1.0 5.0 0.00 0.00 0.00 61 1006.4
20260510014331 81 161 0.0 3.0 0.00 0.00 0.00 62 1006.3
20260510013827 82 135 2.0 3.0 0.00 0.00 0.00 61 1006.2
20260510013323 82 100 0.0 3.0 0.00 0.00 0.00 61 1006.0
20260510012818 82 180 0.0 5.0 0.00 0.00 0.00 60 1006.1
20260510012318 82 147 1.0 3.0 0.00 0.00 0.00 60 1006.3
20260510011813 82 162 1.0 2.0 0.00 0.00 0.00 60 1006.1
20260510011309 83 173 0.0 2.0 0.00 0.00 0.00 59 1006.0
20260510010806 83 126 0.0 2.0 0.00 0.00 0.00 59 1006.1
20260510010303 84 173 1.0 4.0 0.00 0.00 0.00 58 1006.1
20260510005759 84 146 0.0 3.0 0.00 0.00 0.00 57 1006.1
20260510005255 85 89 0.0 3.0 0.00 0.00 0.00 56 1005.9
20260510004754 85 148 0.0 3.0 0.00 0.00 0.00 55 1005.9
20260510004251 86 141 0.0 5.0 0.00 0.00 0.00 54 1005.9
20260510003748 87 166 0.0 3.0 0.00 0.00 0.00 53 1005.9
20260510003245 87 173 2.0 3.0 0.00 0.00 0.00 53 1005.9
20260510002743 87 149 1.0 3.0 0.00 0.00 0.00 52 1005.9
20260510002241 88 5 0.0 3.0 0.00 0.00 0.00 52 1005.9
20260510001737 88 38 0.0 2.0 0.00 0.00 0.00 52 1005.8
20260510001236 88 230 0.0 5.0 0.00 0.00 0.00 52 1005.7
20260510000732 89 60 0.0 3.0 0.00 0.00 0.00 50 1006.0
20260510000229 89 322 1.0 3.0 0.00 0.00 0.00 49 1005.9
20260509235726 89 159 2.0 3.0 0.00 0.00 0.00 48 1005.9
20260509235222 89 104 2.0 6.0 0.00 0.00 0.00 48 1005.6
20260509234718 90 105 1.0 3.0 0.00 0.00 0.00 48 1005.8
20260509234215 90 195 0.0 3.0 0.00 0.00 0.00 48 1006.1
20260509233714 91 269 0.0 1.0 0.00 0.00 0.00 47 1005.8
20260509233211 90 65 2.0 2.0 0.00 0.00 0.00 45 1005.9
20260509232707 90 85 1.0 3.0 0.00 0.00 0.00 46 1005.9
20260509232204 90 107 1.0 4.0 0.00 0.00 0.00 46 1006.0
20260509231700 90 131 3.0 5.0 0.00 0.00 0.00 45 1006.0
20260509231158 91 80 3.0 3.0 0.00 0.00 0.00 44 1005.7
20260509230655 90 21 1.0 4.0 0.00 0.00 0.00 46 1005.7
20260509230151 91 60 0.0 3.0 0.00 0.00 0.00 47 1005.9
20260509225647 90 113 1.0 7.0 0.00 0.00 0.00 45 1005.7
20260509225143 92 298 1.0 3.0 0.00 0.00 0.00 43 1005.7
20260509224639 91 3 0.0 3.0 0.00 0.00 0.00 43 1005.7
20260509224136 91 347 1.0 3.0 0.00 0.00 0.00 44 1005.7
20260509223632 90 17 3.0 5.0 0.00 0.00 0.00 45 1005.7
20260509223130 90 36 2.0 5.0 0.00 0.00 0.00 43 1005.8
20260509222627 90 98 1.0 6.0 0.00 0.00 0.00 43 1005.8
20260509222122 91 22 0.0 4.0 0.00 0.00 0.00 45 1006.0
20260509221618 91 181 1.0 4.0 0.00 0.00 0.00 44 1005.6
20260509221114 91 120 1.0 6.0 0.00 0.00 0.00 45 1005.8
20260509220610 91 129 0.0 3.0 0.00 0.00 0.00 47 1005.8
20260509220107 91 351 1.0 4.0 0.00 0.00 0.00 42 1005.7
20260509215602 91 55 2.0 5.0 0.00 0.00 0.00 44 1005.5
20260509215100 91 296 3.0 6.0 0.00 0.00 0.00 45 1005.5
20260509214557 92 298 4.0 7.0 0.00 0.00 0.00 44 1005.7
20260509214053 91 282 2.0 5.0 0.00 0.00 0.00 44 1005.9
20260509213549 92 313 3.0 5.0 0.00 0.00 0.00 45 1005.6
20260509213046 91 331 2.0 5.0 0.00 0.00 0.00 48 1006.1
20260509212543 91 293 2.0 7.0 0.00 0.00 0.00 47 1006.3
20260509212040 91 299 5.0 7.0 0.00 0.00 0.00 44 1006.2
20260509211536 92 331 1.0 3.0 0.00 0.00 0.00 45 1006.4
20260509211033 92 265 2.0 7.0 0.00 0.00 0.00 43 1006.3
20260509210530 93 356 1.0 3.0 0.00 0.00 0.00 42 1006.4
20260509210026 91 67 1.0 4.0 0.00 0.00 0.00 43 1006.6
20260509205526 92 74 2.0 4.0 0.00 0.00 0.00 45 1006.6
20260509205021 92 290 0.0 2.0 0.00 0.00 0.00 44 1006.5
20260509204518 91 267 3.0 5.0 0.00 0.00 0.00 47 1006.7
20260509204014 91 211 3.0 4.0 0.00 0.00 0.00 45 1006.6
20260509203510 90 137 0.0 3.0 0.00 0.00 0.00 47 1006.8
20260509203009 90 298 4.0 5.0 0.00 0.00 0.00 45 1006.7
20260509202503 90 0 3.0 7.0 0.00 0.00 0.00 46 1006.9
20260509201959 90 7 1.0 4.0 0.00 0.00 0.00 45 1006.9
20260509201454 91 316 2.0 4.0 0.00 0.00 0.00 49 1006.9
20260509200952 90 267 4.0 6.0 0.00 0.00 0.00 46 1007.0
20260509200447 89 247 3.0 4.0 0.00 0.00 0.00 47 1006.9
20260509195943 90 286 4.0 5.0 0.00 0.00 0.00 48 1007.0
20260509195438 90 0 4.0 5.0 0.00 0.00 0.00 48 1007.1
20260509194933 91 262 3.0 5.0 0.00 0.00 0.00 47 1007.3
20260509194428 90 261 1.0 4.0 0.00 0.00 0.00 50 1007.1
20260509193926 89 282 3.0 3.0 0.00 0.00 0.00 48 1007.2
20260509193425 89 294 4.0 9.0 0.00 0.00 0.00 49 1007.4
20260509192921 89 255 6.0 7.0 0.00 0.00 0.00 49 1007.3
20260509192412 89 311 6.0 8.0 0.00 0.00 0.00 48 1007.4
20260509191907 89 331 2.0 3.0 0.00 0.00 0.00 49 1007.4
20260509191403 89 246 1.0 6.0 0.00 0.00 0.00 48 1007.3
20260509190859 89 269 0.0 4.0 0.00 0.00 0.00 48 1007.3
20260509190356 88 152 0.0 3.0 0.00 0.00 0.00 49 1007.4
20260509185854 88 56 3.0 5.0 0.00 0.00 0.00 48 1007.5
20260509185350 87 317 1.0 5.0 0.00 0.00 0.00 47 1007.7
20260509184848 87 349 3.0 5.0 0.00 0.00 0.00 50 1007.7
20260509184344 87 307 8.0 8.0 0.00 0.00 0.00 49 1007.9
20260509183841 88 332 2.0 7.0 0.00 0.00 0.00 48 1007.8
20260509183336 87 314 3.0 6.0 0.00 0.00 0.00 50 1007.7
20260509182833 87 283 7.0 8.0 0.00 0.00 0.00 49 1007.9
20260509182330 87 319 4.0 9.0 0.00 0.00 0.00 50 1007.9
20260509181827 87 96 0.0 7.0 0.00 0.00 0.00 51 1007.9
20260509181324 87 262 5.0 8.0 0.00 0.00 0.00 49 1008.1
20260509180822 87 306 2.0 5.0 0.00 0.00 0.00 49 1008.0
20260509180317 86 312 7.0 9.0 0.00 0.00 0.00 50 1008.1
20260509175814 86 350 3.0 7.0 0.00 0.00 0.00 53 1008.1
20260509175311 86 289 5.0 9.0 0.00 0.00 0.00 51 1008.3
20260509174807 87 294 5.0 6.0 0.00 0.00 0.00 50 1008.3
20260509174302 86 315 5.0 6.0 0.00 0.00 0.00 50 1008.1
20260509173758 87 291 3.0 7.0 0.00 0.00 0.00 52 1008.3
20260509173254 86 348 3.0 5.0 0.00 0.00 0.00 51 1008.4
20260509172750 86 354 3.0 5.0 0.00 0.00 0.00 49 1008.4
20260509172247 86 288 4.0 7.0 0.00 0.00 0.00 50 1008.4
20260509171743 85 277 4.0 11.0 0.00 0.00 0.00 54 1008.5
20260509171239 86 294 5.0 11.0 0.00 0.00 0.00 50 1008.6
20260509170736 86 306 9.0 14.0 0.00 0.00 0.00 52 1008.6
20260509170232 85 299 4.0 8.0 0.00 0.00 0.00 53 1008.6
20260509165731 85 277 5.0 7.0 0.00 0.00 0.00 51 1008.6
20260509165226 85 348 2.0 6.0 0.00 0.00 0.00 52 1008.7
20260509164722 85 349 3.0 5.0 0.00 0.00 0.00 55 1008.5
20260509164218 85 303 9.0 11.0 0.00 0.00 0.00 54 1008.7
20260509163715 85 296 3.0 5.0 0.00 0.00 0.00 52 1008.7
20260509163212 84 0 2.0 7.0 0.00 0.00 0.00 52 1008.8
20260509162709 84 22 3.0 7.0 0.00 0.00 0.00 51 1008.8
20260509162205 84 0 3.0 5.0 0.00 0.00 0.00 52 1008.8
20260509161700 84 286 4.0 5.0 0.00 0.00 0.00 53 1008.8
20260509161156 84 295 3.0 8.0 0.00 0.00 0.00 54 1008.8
20260509160652 84 281 3.0 7.0 0.00 0.00 0.00 52 1008.8
20260509160148 83 344 2.0 5.0 0.00 0.00 0.00 59 1008.6
20260509155644 83 311 3.0 6.0 0.00 0.00 0.00 58 1008.8
20260509155140 83 311 4.0 7.0 0.00 0.00 0.00 57 1009.1
20260509154636 82 308 2.0 8.0 0.00 0.00 0.00 62 1009.2
20260509154133 82 290 4.0 7.0 0.00 0.00 0.00 61 1008.9
20260509153630 82 296 3.0 7.0 0.00 0.00 0.00 62 1009.1
20260509153127 82 359 4.0 7.0 0.00 0.00 0.00 61 1009.0
20260509152623 81 322 4.0 8.0 0.00 0.00 0.00 62 1008.9
20260509152121 81 339 3.0 7.0 0.00 0.00 0.00 66 1008.8
20260509151617 81 350 5.0 5.0 0.00 0.00 0.00 65 1008.9
20260509151114 81 9 2.0 6.0 0.00 0.00 0.00 66 1009.0
20260509150612 81 346 3.0 7.0 0.00 0.00 0.00 67 1008.8
20260509150110 80 0 4.0 7.0 0.00 0.00 0.00 67 1008.7
20260509145606 80 345 8.0 9.0 0.00 0.00 0.00 67 1008.8
20260509145101 79 357 3.0 7.0 0.00 0.00 0.00 70 1008.6
20260509144558 79 340 3.0 7.0 0.00 0.00 0.00 69 1008.7
20260509144055 78 2 4.0 12.0 0.00 0.00 0.00 69 1009.0
20260509143552 78 16 6.0 12.0 0.00 0.00 0.00 70 1008.9
20260509143050 78 12 8.0 9.0 0.00 0.00 0.00 73 1008.8
20260509142544 77 15 5.0 8.0 0.00 0.00 0.00 74 1008.8
20260509142041 77 354 4.0 8.0 0.00 0.00 0.00 75 1008.8
20260509141532 77 357 4.0 6.0 0.00 0.00 0.00 75 1009.1
20260509141029 76 306 5.0 8.0 0.00 0.00 0.00 75 1009.0
20260509140525 76 342 4.0 7.0 0.00 0.00 0.00 77 1008.8
20260509140024 75 334 5.0 10.0 0.00 0.00 0.00 77 1009.1
20260509135520 75 341 3.0 8.0 0.00 0.00 0.00 78 1009.0
20260509135018 76 345 3.0 6.0 0.00 0.00 0.00 78 1008.9
20260509134515 76 328 6.0 10.0 0.00 0.00 0.00 77 1009.0
20260509134013 75 325 3.0 10.0 0.00 0.00 0.00 78 1009.1
20260509133509 75 322 2.0 8.0 0.00 0.00 0.00 79 1009.0
20260509133007 74 345 5.0 9.0 0.00 0.00 0.00 79 1008.9
20260509132505 74 32 4.0 9.0 0.00 0.00 0.00 78 1009.0
20260509132002 74 337 7.0 8.0 0.00 0.00 0.00 78 1008.6
20260509131459 74 317 3.0 9.0 0.00 0.00 0.00 78 1008.9
20260509130955 73 322 3.0 6.0 0.00 0.00 0.00 80 1008.6
20260509130451 73 317 5.0 8.0 0.00 0.00 0.00 79 1008.6
20260509125948 73 345 3.0 9.0 0.00 0.00 0.00 79 1008.5
20260509125445 73 322 4.0 12.0 0.00 0.00 0.00 79 1008.4
20260509124940 73 304 6.0 9.0 0.00 0.00 0.00 80 1008.4
20260509124438 73 323 3.0 9.0 0.00 0.00 0.00 80 1008.4
20260509123935 72 354 3.0 6.0 0.00 0.00 0.00 80 1008.4
20260509123432 72 322 3.0 6.0 0.00 0.00 0.00 80 1008.5
20260509122922 71 324 3.0 5.0 0.00 0.00 0.00 81 1008.4
20260509122420 71 338 2.0 5.0 0.00 0.00 0.00 83 1008.5
20260509121916 71 334 2.0 3.0 0.00 0.00 0.00 83 1008.4
20260509121413 70 345 1.0 3.0 0.00 0.00 0.00 85 1008.4
20260509120911 69 49 0.0 2.0 0.00 0.00 0.00 89 1008.5
20260509120409 69 335 0.0 2.0 0.00 0.00 0.00 90 1008.6
20260509115907 70 306 1.0 3.0 0.00 0.00 0.00 90 1008.5
20260509115404 70 288 2.0 3.0 0.00 0.00 0.00 89 1008.5
20260509114901 70 261 2.0 2.0 0.00 0.00 0.00 88 1008.3
20260509114400 70 296 1.0 4.0 0.00 0.00 0.00 88 1008.3
20260509113859 70 258 2.0 3.0 0.00 0.00 0.00 91 1008.5
20260509113355 71 307 3.0 4.0 0.00 0.00 0.00 92 1008.3
20260509112852 71 211 2.0 3.0 0.00 0.00 0.00 91 1008.3
20260509112349 71 201 1.0 2.0 0.00 0.00 0.00 90 1008.5
20260509111847 71 331 2.0 2.0 0.00 0.00 0.00 89 1008.2
20260509111343 72 340 3.0 4.0 0.00 0.00 0.00 89 1008.5
20260509110842 72 337 4.0 7.0 0.00 0.00 0.00 90 1008.2
20260509110337 72 294 3.0 6.0 0.00 0.00 0.00 91 1008.2
20260509105836 72 314 1.0 7.0 0.00 0.00 0.00 91 1008.0
20260509105333 72 41 1.0 5.0 0.00 0.00 0.00 92 1008.1
20260509104829 72 6 2.0 5.0 0.00 0.00 0.00 93 1007.9
20260509104326 72 345 2.0 7.0 0.00 0.00 0.00 93 1008.0
20260509103824 72 311 8.0 11.0 0.00 0.00 0.00 94 1007.9
20260509103321 72 351 2.0 11.0 0.00 0.00 0.00 94 1007.4
20260509102820 72 316 8.0 14.0 0.00 0.00 0.00 94 1007.4
20260509102317 71 288 5.0 17.0 0.00 0.00 0.00 95 1007.4
20260509101812 71 211 7.0 14.0 0.00 0.00 0.00 95 1006.5
20260509101309 71 193 7.0 13.0 0.00 0.00 0.00 95 1006.4
20260509100807 71 253 2.0 8.0 0.00 0.00 0.00 95 1006.1
20260509100304 71 200 13.0 14.0 0.00 0.00 0.00 95 1005.6
20260509095800 71 174 5.0 19.0 0.00 0.00 0.00 95 1005.5
20260509095257 71 212 4.0 14.0 0.00 0.00 0.00 95 1005.7
20260509094755 71 206 9.0 14.0 0.00 0.00 0.00 95 1005.7
20260509094251 71 180 2.0 8.0 0.00 0.00 0.00 95 1005.4
20260509093749 71 212 3.0 14.0 0.00 0.00 0.00 95 1005.6
20260509093246 71 161 7.0 17.0 0.00 0.00 0.00 95 1005.0
20260509092745 71 172 7.0 13.0 0.00 0.00 0.00 95 1005.2
20260509092242 71 184 6.0 12.0 0.00 0.00 0.00 95 1005.6
20260509091740 71 173 5.0 11.0 0.00 0.00 0.00 95 1005.7
20260509091236 71 193 5.0 14.0 0.00 0.00 0.00 95 1005.8
20260509090734 71 181 6.0 13.0 0.00 0.00 0.00 95 1005.9
20260509090231 71 211 7.0 13.0 0.00 0.00 0.00 95 1006.5
20260509085728 71 173 7.0 15.0 0.00 0.00 0.00 95 1006.3
20260509085225 71 191 3.0 12.0 0.00 0.00 0.00 95 1006.2
20260509084722 71 197 5.0 8.0 0.00 0.00 0.00 95 1006.5
20260509084218 71 222 5.0 7.0 0.00 0.00 0.00 95 1006.6
20260509083717 71 195 3.0 9.0 0.00 0.00 0.00 94 1006.9
20260509083213 71 185 3.0 9.0 0.00 0.00 0.00 94 1007.1
20260509082710 71 182 7.0 9.0 0.00 0.00 0.00 95 1007.1
20260509082206 71 144 3.0 8.0 0.00 0.00 0.00 94 1007.3
20260509081703 71 178 2.0 9.0 0.00 0.00 0.00 95 1007.2
20260509081201 71 188 5.0 9.0 0.00 0.00 0.00 95 1007.4
20260509080659 71 180 2.0 11.0 0.00 0.00 0.00 95 1007.9
20260509080156 71 217 1.0 7.0 0.00 0.00 0.00 94 1008.4
20260509075654 71 160 3.0 6.0 0.00 0.00 0.00 94 1008.5
20260509075152 71 172 5.0 8.0 0.00 0.00 0.00 94 1008.9
20260509074648 71 185 5.0 6.0 0.00 0.00 0.00 94 1009.1
20260509074145 71 187 4.0 9.0 0.00 0.00 0.00 93 1009.2
20260509073642 71 214 3.0 6.0 0.00 0.00 0.00 93 1010.0
20260509073137 71 284 3.0 7.0 0.00 0.00 0.00 93 1010.3
20260509072634 71 289 8.0 12.0 0.00 0.00 0.00 93 1010.4
20260509072126 71 303 6.0 11.0 0.00 0.00 0.00 94 1010.2
20260509071622 70 304 3.0 7.0 0.00 0.00 0.00 95 1009.9
20260509071120 70 316 1.0 7.0 0.00 0.00 0.00 95 1009.9
20260509070617 70 312 3.0 6.0 0.00 0.00 0.00 96 1010.0
20260509070113 70 303 2.0 5.0 0.00 0.00 0.00 96 1009.8
20260509065609 70 313 1.0 3.0 0.00 0.00 0.00 96 1009.9
20260509065104 69 317 3.0 5.0 0.00 0.00 0.00 96 1010.3
20260509064602 69 357 2.0 4.0 0.00 0.00 0.00 96 1010.1
20260509064101 69 335 3.0 6.0 0.00 0.00 0.00 96 1010.1
20260509063556 69 347 1.0 3.0 0.00 0.00 0.00 96 1010.0
20260509063053 69 341 0.0 3.0 0.00 0.00 0.00 96 1009.6
20260509062550 69 356 2.0 7.0 0.00 0.00 0.00 96 1009.7
20260509062047 68 15 0.0 2.0 0.00 0.00 0.00 96 1009.6
20260509061544 68 4 0.0 3.0 0.00 0.00 0.00 96 1009.2
20260509061041 68 341 2.0 3.0 0.00 0.00 0.00 96 1009.4
20260509060539 68 354 2.0 3.0 0.00 0.00 0.00 96 1008.9
20260509060034 69 352 0.0 2.0 0.00 0.00 0.00 96 1008.9
20260509055530 69 10 1.0 1.0 0.00 0.00 0.00 96 1008.6
20260509055021 69 79 0.0 1.0 0.00 0.00 0.00 96 1008.5
20260509054517 69 174 0.0 0.0 0.00 0.00 0.00 96 1008.2
20260509054016 69 174 0.0 0.0 0.00 0.00 0.00 95 1008.5
20260509053514 69 174 0.0 2.0 0.00 0.00 0.00 96 1008.5
20260509053011 69 224 1.0 3.0 0.00 0.00 0.00 96 1008.7
20260509052508 69 202 0.0 1.0 0.00 0.00 0.00 95 1008.7
20260509052007 70 208 0.0 3.0 0.00 0.00 0.00 95 1008.4
20260509051504 70 217 0.0 3.0 0.00 0.00 0.00 95 1008.6
20260509051001 70 159 1.0 3.0 0.00 0.00 0.00 94 1008.7
20260509050457 70 187 0.0 2.0 0.00 0.00 0.00 94 1008.9
20260509045954 71 175 0.0 3.0 0.00 0.01 0.01 94 1008.6
20260509045451 71 157 0.0 2.0 0.00 0.01 0.01 93 1008.8
20260509044948 71 32 0.0 2.0 0.00 0.01 0.01 93 1008.9
20260509044446 71 36 2.0 3.0 0.00 0.01 0.01 93 1009.1
20260509043943 71 38 2.0 3.0 0.00 0.01 0.01 93 1008.8
20260509043438 71 89 0.0 2.0 0.00 0.01 0.01 92 1008.5
20260509042934 71 199 0.0 2.0 0.00 0.01 0.01 93 1008.5
20260509042432 71 164 0.0 4.0 0.00 0.01 0.01 92 1008.2
20260509041927 71 176 3.0 7.0 0.00 0.01 0.01 92 1008.2
20260509041424 72 159 2.0 7.0 0.00 0.01 0.01 92 1008.0
20260509040922 72 169 5.0 8.0 0.00 0.01 0.01 91 1008.1
20260509040420 72 135 1.0 6.0 0.00 0.01 0.01 91 1008.3
20260509035917 72 154 2.0 7.0 0.00 0.01 0.01 91 1008.4
20260509035414 72 160 3.0 7.0 0.00 0.01 0.01 91 1008.3
20260509034910 72 144 2.0 6.0 0.00 0.01 0.01 90 1008.2
20260509034408 72 176 3.0 6.0 0.00 0.01 0.01 90 1008.2
20260509033905 72 184 2.0 5.0 0.00 0.01 0.01 90 1008.2
20260509033402 73 160 2.0 11.0 0.00 0.01 0.01 90 1007.5
20260509032858 73 168 3.0 9.0 0.00 0.01 0.01 90 1007.5
20260509032356 73 162 3.0 7.0 0.00 0.01 0.01 89 1007.9
20260509031854 73 153 4.0 11.0 0.00 0.01 0.01 89 1007.7
20260509031351 73 202 4.0 8.0 0.00 0.01 0.01 89 1007.7
20260509030848 73 178 2.0 4.0 0.00 0.01 0.01 89 1007.7
20260509030345 73 141 2.0 9.0 0.00 0.01 0.01 88 1007.3
20260509025837 73 161 2.0 9.0 0.00 0.01 0.01 88 1007.7
20260509025332 74 172 5.0 10.0 0.00 0.01 0.01 88 1007.3
20260509024828 74 162 3.0 8.0 0.00 0.01 0.01 88 1007.7
20260509024324 74 160 2.0 7.0 0.00 0.01 0.01 88 1007.4
20260509023821 74 178 3.0 6.0 0.00 0.01 0.01 88 1007.2
20260509023319 74 196 4.0 5.0 0.00 0.01 0.01 88 1007.2
20260509022815 74 202 0.0 5.0 0.00 0.01 0.01 88 1007.1
20260509022313 74 199 2.0 4.0 0.00 0.01 0.01 88 1007.2
20260509021809 74 188 3.0 6.0 0.00 0.01 0.01 88 1007.1
20260509021307 74 211 2.0 4.0 0.00 0.01 0.01 87 1007.1
20260509020804 74 192 1.0 3.0 0.00 0.01 0.01 87 1007.1